Location: Newark
(54.1978°N, 18.3264°E)
Time: 09:01:49
(UTC+00:00)

OTV 5 (USA 277) - Pass Details

Date: 31 August 2019
Orbit: 295 x 339 km, 54.5° (Epoch: 08 September)

Event Time Altitude Azimuth Distance (km) Brightness Sun altitude
Rises 19:37:30 0° 272° (W) 2,001 ? -15.8°
Reaches altitude 10° 19:39:27 10° 274° (W) 1,172 ? -16.0°
Maximum altitude 19:42:02 80° 1° (N) 308 ? -16.3°
Enters shadow 19:42:19 66° 69° (ENE) 331 ? -16.3°
